Regional Weather Roundup
Issued by NWS Mt. Holly, NJ

Home | Current Version | Previous Version | Text Only | Print | Product List | Glossary On
Versions: 1 2 3 4 5 6 7 8 9 10 11 12 13 14 15 16 17 18 19 20 21 22 23 24 25 26 27 28 29 30 31 32 33 34 35 36 37 38 39 40 41 42 43 44 45 46 47 48
000
ASUS41 KPHI 021210
RWRPHI

REGIONAL WEATHER ROUNDUP
NATIONAL WEATHER SERVICE MOUNT HOLLY NJ
800 AM EDT THU OCT 02 2014

NOTE:  "FAIR" INDICATES FEW OR NO CLOUDS BELOW 12,000 FEET WITH NO
SIGNIFICANT WEATHER AND/OR OBSTRUCTIONS TO VISIBILITY.

 * = STATION DOES NOT REPORT PRECIPITATION (E.G. RAIN, SNOW, ETC.)
        OR FOG.

NJZ015>026-021300-
SOUTHERN NEW JERSEY

CITY           SKY/WX    TMP DP  RH WIND       PRES   REMARKS
POMONA         MOSUNNY   60  58  92 N7        30.11R
6HR MIN TEMP:  58; 6HR MAX TEMP:  61;

RIO GRANDE*    MOSUNNY   57  54  88 N5        30.12R
MILLVILLE      SUNNY     60  57  89 N5        30.11R
WRIGHTSTOWN    CLOUDY    60  60  99 N6        30.10R
MOUNT HOLLY    CLOUDY    61  57  87 N3        30.12R
TRENTON        CLOUDY    60  55  83 NE6       30.12R
6HR MIN TEMP:  60; 6HR MAX TEMP:  62;


$$
NJZ001>014-021300-
NORTHERN NEW JERSEY

CITY           SKY/WX    TMP DP  RH WIND       PRES   REMARKS
SUSSEX         CLOUDY    61  56  83 NE3       30.15R
ANDOVER*         N/A     58  56  93 VRB5      30.15R
MORRISTOWN     CLOUDY    61  57  88 NE5       30.15R
NEWARK         CLOUDY    61  56  83 N9        30.13R
TETERBORO      CLOUDY    61  54  77 N6        30.12R
CALDWELL       CLOUDY    59  53  80 VRB3      30.15R
SOMERVILLE     CLOUDY    61  55  81 N3        30.12R
ALLAIRE*       CLOUDY    61  54  77 N6        30.12R
TOMS RIVER*    CLOUDY    59  57  94 CALM      30.12R

$$
PAZ043-044-047-054-055-060>062-066>071-021300-
EASTERN PENNSYLVANIA

CITY           SKY/WX    TMP DP  RH WIND       PRES   REMARKS
PHILADELPHIA   PTSUNNY   63  56  78 NE8       30.12R
6HR MIN TEMP:  62; 6HR MAX TEMP:  65;

NORTH PHILA    MOSUNNY   62  55  77 NE8       30.14R
BLUE BELL      CLOUDY    61  57  88 CALM      30.12S
DOYLESTOWN     CLOUDY    59  57  93 NE5       30.12S
QUAKERTOWN*    CLOUDY    59  57  94 NE3       30.14R
POTTSTOWN      CLOUDY    59  56  89 CALM      30.14R
LANCASTER      MOSUNNY   54  54 100 NW3       30.14R FOG
COATESVILLE    MOSUNNY   57  57 100 CALM      30.14R
READING        MOSUNNY   54  52  93 CALM      30.13R
6HR MIN TEMP:  53; 6HR MAX TEMP:  59;

ALLENTOWN      CLOUDY    61  54  77 NE8       30.14R
6HR MIN TEMP:  59; 6HR MAX TEMP:  62;

MOUNT POCONO   CLOUDY    55  53  93 E5        30.16R
6HR MIN TEMP:  55; 6HR MAX TEMP:  56; 6HR PCP:  0.01;

HAZLETON       PTSUNNY   54  54 100 CALM      30.18R
WILKES BARRE   CLOUDY    60  54  80 CALM      30.15R

$$
DEZALL-MDZ008-012-015-019-020-021300-
DELAWARE AND EASTERN MARYLAND

CITY           SKY/WX    TMP DP  RH WIND       PRES   REMARKS
WILMINGTON     SUNNY     60  57  89 CALM      30.13R
6HR MIN TEMP:  55; 6HR MAX TEMP:  60;

DOVER          SUNNY     59  59 100 W2        30.10R
GEORGETOWN     SUNNY     60  57  89 VRB5      30.12R
6HR MIN TEMP:  57; 6HR MAX TEMP:  60;

EASTON         PTSUNNY   61  61 100 NE5       30.16R FOG
PATUXENT       MOSUNNY   60  58  92 CALM      30.12R
OCEAN CITY     SUNNY     59  57  93 NW5       30.10R FOG
WALLOPS ISLAND SUNNY     60  58  92 N7        30.11R FOG
CAMBRIDGE      CLOUDY    59  55  88 CALM      30.12R
SALISBURY      MOSUNNY   62  58  86 NW5       30.11R FOG

$$
PAZ001-021-NYZ056-072-MDZ011-DCZ001-021300-
OTHER NEARBY LOCATIONS

CITY           SKY/WX    TMP DP  RH WIND       PRES   REMARKS
HARRISBURG     PTCLDY    58  56  93 CALM      30.14R FOG
STATE COLLEGE  CLOUDY    54  54 100 CALM      30.14S FOG
WILLIAMSPORT   FOG       55  53  93 CALM      30.14R VSB 1/4
BINGHAMTON     FOG       54  54 100 E3        30.16R VSB<1/4
NEW YORK CITY  CLOUDY    61  54  77 NE8       30.16R
BALTIMORE      CLOUDY    61  58  90 CALM      30.13R
WASHINGTON DC  CLOUDY    64  59  83 NE6       30.13R

$$


USA.gov is the U.S. government's official web portal to all federal, state and local government web resources and services.